sat.trackr.live / text

‹ back to catalog

STARLINK-11609 [DTC]

NORAD 63132 · 2025-043A

PAYLOAD ACTIVE UNKNOWN

§ Identity

Operator
Country
US
Launch date
2025-03-03
Launch site
AFETR
Launch vehicle
Mass (kg)
RCS (m²)

Purposes: comms

External: N2YO · Heavens-Above · Gunter

§ Orbital elements

Epoch: 2026-05-25T01:41:26.473056Z

Period
91.66 min
Inclination
43.0006°
Eccentricity
0.0001779
Mean motion
15.70995436 rev/d
Perigee alt
354.9 km
Apogee alt
357.2 km
Semi-major
6,734.2 km
B*
1.9151e-3
RAAN
150.4285°
Arg perigee
223.0596°
Mean anomaly
137.0133°
Rev number
7,147

§ Raw data

STARLINK-11609 [DTC]1 63132U 25043A   26145.07044529  .00254621  00000+0  19151-2 0  99962 63132  43.0006 150.4285 0001779 223.0596 137.0133 15.70995436 71472

JSON: /api/v1/satellites/63132 · /tle

For live sub-satellite position, see the globe view (requires WebGL).

§ Visibility from observer

Set your observer location to see the next 7 days of passes ≥ 10°. The values pass through the URL so the page stays shareable.

No JS? Fill the form by hand. The geolocation button needs JavaScript.